date,batt_volt,AirTemp_C,Solar_kW,RH,Manual_BP,StationID,WS_ms,PTemp,WS_15min_max,Prog_Sig,Solar_Raw,Bar_mbar,Solar_MJ,Max_WS_2min,Pressure_Raw,Rain_mm,WD_15min_ave,Max_AirTemp_1min,WindDir,WS_15min_med,WS_15min_ave,Elevation_Correction
2022-06-01T00:13:56Z,13.35981,8.372883,0.0004823642,58.1017,0,1156,1.3132,10.08733,5.2332,43690,0.03376549,1014.953,2.411821e-06,2.587,1013.153,0,52.132140577,8.41,82.33593,2.254,2.429,1.80078
2022-06-01T00:28:53Z,13.36533,8.101696,0.0,59.76271,0,1156,1.3328,9.793629,4.8216,43690,0.0,1014.953,0.0,2.96,1013.153,0,54.9617799747,8.24,62.74475,1.5876,1.66107065269,1.80078
2022-06-01T00:43:56Z,13.36631,8.068451,0.0,60.6788,0,1156,0.0392,9.547367,2.8224,43690,0.0,1014.953,0.0,1.372,1013.153,0,48.3332476471,8.17,55.86211,0.9799999,1.02025627784,1.80078
2022-06-01T00:58:53Z,13.38337,8.074822,0.0,62.3481,0,1156,0.3136,9.301113,3.4496,43690,0.0,1014.953,0.0,3.45,1013.153,0,350.348058957,8.179999,30.8835,0.588,0.780009576048,1.80078
2022-06-01T01:13:56Z,13.39132,7.845406,0.0,63.61302,0,1156,0.6076,9.079701,2.0384,43690,0.0,1015.204,0.0,1.999,1013.403,0,35.894591201,7.947001,273.1823,0.7644,0.771207174251,1.80078
2022-06-01T01:28:55Z,13.40298,7.338047,0.0,66.05624,0,1156,0.6076,8.677555,2.646,43690,0.0,1015.204,0.0,1.078,1013.403,0,303.400980211,7.779,87.63642,0.4508,0.527087418563,1.80078
2022-06-01T01:43:56Z,13.41404,6.761604,0.0,69.10816,0,1156,0.6272,8.081112,1.7248,43690,0.0,1015.204,0.0,1.117,1013.403,0,57.2584957013,6.762,41.12173,0.7252,0.741279032934,1.80078
2022-06-01T01:58:56Z,13.4306,6.388599,0.0,71.48184,0,1156,0.8624,7.575046,1.5092,43690,0.0,1015.204,0.0,1.509,1013.403,0,51.1348432117,6.49,57.22854,0.7644,0.762991601198,1.80078
2022-06-01T02:13:58Z,13.43757,7.105786,0.0,67.62342,0,1156,1.8228,7.310711,2.548,43690,0.0,1015.127,0.0,1.568,1013.327,0,49.494163934,7.173,52.58755,1.078,1.0811499869,1.80078
2022-06-01T02:28:58Z,13.43838,6.871216,0.0,68.84846,0,1156,0.9211999,7.093822,2.2344,43690,0.0,1015.127,0.0,0.7450001,1013.327,0,44.4859612375,7.041,263.0981,0.9604,1.0191999869,1.80078
2022-06-01T02:43:56Z,13.45011,6.909573,0.0,67.87134,0,1156,0.588,6.766231,1.6268,43690,0.0,1015.127,0.0,1.47,1013.327,0,347.351887951,6.943,258.3788,0.882,0.862166654167,1.80078
2022-06-01T02:58:56Z,13.46274,6.166714,0.0,71.16662,0,1156,1.0192,6.373119,1.1172,43690,0.0,1015.127,0.0,0.9020001,1013.327,0,229.015098154,6.404,65.7494,0.294,0.321766664286,1.80078
2022-06-01T03:13:55Z,13.47383,6.132965,0.0,71.5061,0,1156,0.0392,5.959682,1.4308,43690,0.0,1015.056,0.0,0.039,1013.255,0,66.3605558078,6.235,95.27678,0.245,0.365399995833,1.80078
2022-06-01T03:28:56Z,13.47936,5.929436,0.0,72.76118,0,1156,1.0388,5.614014,1.862,43690,0.0,1015.056,0.0,1.509,1013.255,0,292.910833118,5.963,237.2045,0.5684,0.565599992857,1.80078
2022-06-01T03:43:56Z,13.48488,5.99728,0.0,71.91315,0,1156,0.5684,5.311276,1.8032,43690,0.0,1015.056,0.0,0.333,1013.255,0,305.081971006,6.167,117.7232,0.4116,0.516483330357,1.80078
2022-06-01T03:58:56Z,13.49593,5.319626,0.0,73.88184,0,1156,0.0392,5.008534,1.1956,43690,0.0,1015.056,0.0,1.058,1013.255,0,162.229621547,5.488,165.1958,0.0588,0.226566666071,1.80078
2022-06-01T04:15:13Z,13.50772,5.22155,0.0,76.80539,0,1156,0.0196,4.622204,1.4112,43690,0.0,1014.576,0.0,0.666,1012.775,0,204.542834128,5.39,125.6352,0.0392,0.317176640146,1.80078
2022-06-01T04:30:13Z,13.51601,5.161716,0.0,77.76909,0,1156,0.294,4.384979,1.1956,43690,0.0,1014.576,0.0,0.529,1012.775,0,149.818849728,5.229,158.5655,0.4312,0.401916664286,1.80078
2022-06-01T04:45:12Z,13.52811,4.893036,0.0,80.2849,0,1156,1.4112,4.084499,1.4112,43690,0.0,1014.576,0.0,0.882,1012.775,0,164.078139104,4.995,198.8093,0.8035999,0.825883318452,1.80078
2022-06-01T05:00:12Z,13.53366,4.825237,0.0,80.89581,0,1156,1.0584,3.806614,1.9404,43690,0.0,1014.576,0.0,1.078,1012.775,0,216.190948445,4.825,227.5517,0.8231999,0.816199990476,1.80078
2022-06-01T05:15:12Z,13.53919,4.553772,0.0,82.79604,0,1156,1.1564,3.569393,1.5288,43690,0.0,1014.417,0.0,1.529,1012.616,0,171.523361963,4.622,189.004,0.8624,0.814333327381,1.80078
2022-06-01T05:30:13Z,13.54472,4.587708,0.0,83.6783,0,1156,1.4112,3.377354,1.8032,43690,0.0,1014.417,0.0,1.725,1012.616,0,166.642253385,4.656,181.1499,1.1172,1.13259998988,1.80078
2022-06-01T05:45:13Z,13.54518,4.622093,0.0,83.40769,0,1156,0.9015999,3.20565,1.6072,43690,0.0,1014.417,0.0,1.313,1012.616,0,177.251166185,4.656,168.9128,1.0192,0.973116657143,1.80078
2022-06-01T06:00:14Z,13.55107,4.624531,0.0,84.02306,0,1156,1.0192,3.056541,1.47,43690,0.0,1014.417,0.0,1.47,1012.616,0,168.696422914,4.726,161.3083,0.9113999,0.845716651786,1.80078
2022-06-01T06:15:14Z,13.55128,5.069687,0.0,83.18207,0,1156,1.5092,2.993282,2.3128,43690,0.0,1014.45,0.0,1.803,1012.649,0,167.259793299,5.239,179.491,1.4504,1.45588333036,1.80078
2022-06-01T06:30:15Z,13.54626,5.103108,0.0,82.57025,0,1156,0.4704,3.013615,1.5288,43690,0.0,1014.45,0.0,1.45,1012.649,0,171.288227214,5.171,163.7545,0.9408,0.906149975595,1.80078
2022-06-01T06:45:14Z,13.54691,5.204838,0.0,81.21259,0,1156,1.078,3.013615,1.8816,43690,0.0,1014.45,0.0,1.823,1012.649,0,209.411429979,5.273,208.042,0.5978,0.673983326786,1.80078
2022-06-01T07:00:14Z,13.5459,5.374786,0.0,79.0071,0,1156,1.5288,3.056541,1.7052,43690,0.0,1014.45,0.0,1.431,1012.649,0,225.147898079,5.51,228.2837,0.8133999,0.773383323214,1.80078
2022-06-01T07:15:15Z,13.54617,5.305348,0.0,78.86864,0,1156,1.1172,3.099468,1.6464,43690,0.0,1014.41,0.0,1.039,1012.61,0,201.795287966,5.51,179.1944,0.6664,0.654966659524,1.80078
2022-06-01T07:30:16Z,13.55115,4.761845,0.0,81.17538,0,1156,0.4704,3.079136,1.6072,43690,0.0,1014.41,0.0,1.45,1012.61,0,178.977276639,4.965,164.0608,0.7644,0.783883325595,1.80078
2022-06-01T07:45:15Z,13.55196,4.627068,0.0,81.61833,0,1156,1.0976,2.970692,1.5092,43690,0.0,1014.41,0.0,1.156,1012.61,0,200.83331073,4.796,215.339,0.7742,0.745412486875,1.80078
2022-06-01T08:00:17Z,13.55802,4.798683,0.0,81.3164,0,1156,1.3132,2.930023,2.5284,43690,0.0,1014.41,0.0,1.999,1012.61,0,210.128294974,4.867,8.987905,0.9015999,0.985366655357,1.80078
2022-06-01T08:15:13Z,13.55805,4.662552,0.0009657065,81.01027,0,1156,0.8231999,2.970692,2.0384,43690,0.06759946,1013.932,4.828532e-06,1.999,1012.131,0,30.7096960987,4.765,33.614,0.882,0.874253881437,1.80078
2022-06-01T08:30:17Z,13.55225,4.662327,0.003862826,80.67048,0,1156,1.47,3.013615,2.2344,43690,0.2703978,1013.932,1.931413e-05,2.234,1012.131,0,27.7247481434,4.73,29.34885,0.8624,0.897049989881,1.80078
2022-06-01T08:45:18Z,13.55167,4.763817,0.008208505,79.31238,0,1156,0.3136,3.036209,1.7444,43690,0.5745953,1013.932,4.104252e-05,1.607,1012.131,0,29.1426504731,4.832,232.3073,0.5292,0.645166663095,1.80078
2022-06-01T09:00:17Z,13.54564,5.136032,0.01303704,76.73126,0,1156,2.4108,3.099468,2.548,43690,0.9125926,1013.932,6.518519e-05,2.509,1012.131,0,39.584198103,5.273,32.64896,1.0976,1.18244194895,1.80078
2022-06-01T09:15:14Z,13.53954,5.913216,0.0840129,74.18056,0,1156,0.3332,3.334431,2.8812,43690,5.880903,1013.419,0.0004200645,2.744,1011.619,0,35.1891503194,5.947,40.74196,1.372,1.46463013425,1.80078
2022-06-01T09:30:18Z,13.50605,6.623752,0.1197285,71.25901,0,1156,3.2732,4.278797,3.2732,43690,8.380998,1013.419,0.0005986427,3.273,1011.619,0,26.1420550173,6.692,30.91046,1.519,1.55896363182,1.80078
2022-06-01T09:45:18Z,13.46447,7.055576,0.1486704,69.68433,0,1156,0.9211999,5.52816,4.508,43690,10.40692,1013.419,0.0007433517,4.508,1011.619,0,12.2503657165,7.16,41.57514,1.9208,1.9681666625,1.80078
2022-06-01T10:00:19Z,13.43521,7.557946,0.2003165,68.89457,0,1156,3.0576,6.786564,4.5668,43690,14.02216,1013.419,0.001001583,3.136,1011.619,0,355.853741878,7.626001,262.374,1.8718,1.96069999464,1.80078
2022-06-01T10:15:20Z,13.40022,8.229686,0.245136,67.90143,0,1156,2.9792,8.015598,4.6648,43690,17.15952,1014.002,0.00122568,4.665,1012.201,0,278.193270228,8.2,259.1348,1.666,1.75536666488,1.80078
2022-06-01T10:30:16Z,13.37547,8.626976,0.2943321,67.20967,0,1156,0.9604,9.258182,4.5472,43690,20.60324,1014.002,0.00147166,3.45,1012.201,0,255.524840896,8.66,288.5522,2.0776,2.03722634431,1.80078
2022-06-01T10:45:17Z,13.36766,8.147907,0.1095099,68.5599,0,1156,2.8812,9.660328,4.8412,43690,7.665696,1014.002,0.0005475497,4.841,1012.201,0,272.780595484,8.15,278.8004,2.2736,2.24108981796,1.80078
2022-06-01T11:00:17Z,13.37236,8.583313,0.3984442,66.3825,0,1156,1.4504,9.547367,4.6844,43690,27.89109,1014.002,0.001992221,4.684,1012.201,0,2.03432091396,8.689999,252.3152,2.058,2.12196406886,1.80078
2022-06-01T11:15:18Z,13.34348,9.323032,0.4519764,65.49285,0,1156,3.5084,10.56177,4.7824,43690,31.63835,1013.807,0.002259882,4.43,1012.006,0,331.350064457,9.32,280.6602,2.0384,2.17865149521,1.80078
2022-06-01T11:30:18Z,13.32117,9.83054,0.5011765,64.03394,0,1156,2.1168,11.51744,5.5664,43690,35.08236,1013.807,0.002505883,4.978,1012.006,0,26.2954800901,9.8,55.93359,3.0772,2.94668981916,1.80078
2022-06-01T11:45:18Z,13.30327,9.625404,0.4383981,62.33683,0,1156,4.0768,12.34884,5.8996,43690,30.68786,1013.807,0.00219199,5.174,1012.006,0,24.951856569,9.83,45.22182,2.9204,2.95185389042,1.80078
2022-06-01T12:00:19Z,13.30233,9.788357,0.5419971,63.9555,0,1156,2.6656,12.5341,6.0956,43690,37.9398,1013.807,0.002709985,5.821,1012.006,0,34.8574941662,9.689999,26.27768,2.9792,3.21932934072,1.80078
2022-06-01T12:15:18Z,13.29072,10.63545,0.6982278,62.6334,0,1156,0.098,13.04695,5.6644,43690,48.87595,1014.055,0.003491139,5.645,1012.254,0,14.9940639128,10.5,194.0256,2.254,2.43434545325,1.80078
2022-06-01T12:30:19Z,13.27261,9.949482,0.3958875,61.94549,0,1156,3.3712,13.77668,8.408401,43690,27.71212,1014.055,0.001979437,5.802,1012.254,0,31.3132449577,10.22,30.86871,3.9984,3.88690298204,1.80078
2022-06-01T12:45:19Z,13.28354,9.915302,0.5627292,64.82551,0,1156,4.2532,13.63662,9.290401,43690,39.39104,1014.055,0.002813646,5.116,1012.254,0,36.9823302937,10.05,63.49341,4.1944,4.31868981377,1.80078
2022-06-01T13:00:20Z,13.26146,10.45749,0.7965485,61.13184,0,1156,3.234,14.30083,7.2324,43690,55.75839,1014.055,0.003982742,5.645,1012.254,0,24.5845717228,10.63,35.34362,3.2242,3.11686666548,1.80078
2022-06-01T13:15:19Z,13.2426,10.54818,0.5322681,61.2541,0,1156,3.5476,14.89953,7.369599,43690,37.25877,1013.153,0.00266134,6.88,1011.352,0,354.335651866,10.92,10.51179,3.136,3.12188332143,1.80078
2022-06-01T13:30:20Z,13.24615,10.57758,0.4459078,60.13074,0,1156,2.1364,14.92439,7.6048,43690,31.21355,1013.153,0.002229539,4.763,1011.352,0,2.39356602948,10.61,49.23505,3.0478,3.2084499994,1.80078
2022-06-01T13:45:20Z,13.24635,11.35665,1.155006,57.86092,0,1156,4.116,15.02153,5.8016,43690,80.8504,1013.153,0.005775029,5.802,1011.352,0,329.492906765,11.36,10.36652,2.8028,2.93369999821,1.80078
2022-06-01T14:00:21Z,13.22403,11.86335,0.960222,57.62218,0,1156,0.8231999,15.84842,7.35,43690,67.21554,1013.153,0.00480111,5.762,1011.352,0,12.1474357033,12.17,171.4397,3.4398,3.61223331369,1.80078
2022-06-01T14:15:21Z,13.20181,12.5068,1.061931,51.08403,0,1156,5.8604,16.43808,7.369599,43690,74.3352,1012.982,0.005309657,6.35,1011.181,0,231.743235992,12.37,12.24221,2.744,2.98444998571,1.80078
2022-06-01T14:30:21Z,13.19629,13.82794,1.026261,59.55287,0,1156,2.3912,16.95997,7.898799,43690,71.83824,1012.982,0.005131303,3.763,1011.181,0,2.41513483521,13.42,175.576,3.3614,3.56813331964,1.80078
2022-06-01T14:45:26Z,13.18277,12.49666,1.126456,51.27738,0,1156,2.6852,17.56319,7.643999,43690,78.85193,1012.982,0.00563228,5.586,1011.181,0,240.670139128,12.8,243.3301,2.9792,3.00831004615,1.80078
2022-06-01T15:00:25Z,13.18096,13.40416,1.01595,51.06752,0,1156,4.3316,17.71682,5.7036,43690,71.11652,1012.982,0.005079752,5.331,1011.181,0,222.055964865,13.37,13.36831,2.9988,3.00671538333,1.80078
2022-06-01T15:15:22Z,13.17528,13.94518,0.9292082,49.03492,0,1156,1.6464,17.945,6.6248,43690,65.04458,1011.839,0.004646042,6.527,1010.039,0,304.128761985,14.05,215.0438,3.2928,3.30598333333,1.80078
2022-06-01T15:30:25Z,13.16976,14.21608,1.072837,47.0708,0,1156,4.312,18.32682,5.1352,43690,75.09858,1011.839,0.005364185,4.704,1010.039,0,35.7750913266,14.45,54.60246,2.254,2.2928254758,1.80078
2022-06-01T15:45:23Z,13.16425,14.52085,1.053395,46.86762,0,1156,3.7044,18.53241,8.5848,43690,73.73767,1011.839,0.005266976,6.331,1010.039,0,220.163378656,14.59,254.9317,3.7534,3.63463333333,1.80078
2022-06-01T16:00:24Z,13.15873,14.7579,1.146384,60.54862,0,1156,5.9388,18.84192,7.4088,43690,80.24686,1011.019,0.005731919,7.174,1009.218,0,189.488888287,14.76,155.1037,4.1356,4.12719999405,1.80078
2022-06-01T16:15:25Z,13.1477,12.01492,0.3469508,67.45686,0,1156,9.525599,19.25989,10.6036,43690,24.28656,1011.019,0.001734754,9.349999,1009.218,0,168.300789035,12.29,162.8697,8.3006,8.18521646429,1.80078
2022-06-01T16:30:25Z,13.15321,12.08265,0.4838037,65.89912,0,1156,8.2908,19.10174,9.995999,43690,33.86626,1011.019,0.002419019,9.21,1009.218,0,168.941751934,12.42,161.6435,8.4965995,8.50464972024,1.80078
2022-06-01T16:45:24Z,13.16425,12.55675,0.459228,64.0366,0,1156,7.1736,18.86904,9.2512,43690,32.14596,1011.019,0.00229614,8.57,1009.218,0,171.318391883,12.59,164.4806,7.898799,7.80044982738,1.80078
2022-06-01T17:00:23Z,13.16976,11.67629,0.3671896,67.76162,0,1156,6.2916,18.55952,9.290401,43690,25.70328,1010.369,0.001835948,8.7,1008.568,0,171.408198957,11.85,163.8555,7.0952,6.93816652381,1.80078
2022-06-01T17:15:24Z,13.17528,12.04879,1.224589,67.99868,0,1156,9.564799,18.27711,10.3684,43690,85.72119,1010.369,0.006122942,9.229999,1008.568,0,171.065239465,12.05,166.4041,8.1242,8.16864970833,1.80078
2022-06-01T17:30:24Z,13.16425,12.18425,1.275621,64.30752,0,1156,8.1536,18.45559,9.8392,43690,89.29345,1010.369,0.006378104,9.15,1008.568,0,170.017792271,12.49,165.5385,7.9772,7.9535165,1.80078
2022-06-01T17:45:24Z,13.16425,12.86152,0.3527396,62.61432,0,1156,8.623999,18.48045,10.4076,43690,24.69177,1010.369,0.001763698,9.74,1008.568,0,171.298805722,12.96,171.1406,8.2222,8.29091643452,1.80078
2022-06-01T18:00:24Z,13.15873,12.48902,0.30359,64.9848,0,1156,6.664,18.53241,10.192,43690,21.2513,1010.531,0.00151795,8.62,1008.73,0,171.041689314,12.73,176.1897,8.2712,8.1546497381,1.80078
2022-06-01T18:15:26Z,13.17528,11.74402,0.2934678,69.31937,0,1156,9.3492,18.27711,10.6624,43690,20.54275,1010.531,0.001467339,9.07,1008.73,0,172.34927695,11.85,176.5504,8.379,8.30573318452,1.80078
2022-06-01T18:30:26Z,13.18079,11.87947,0.422191,70.19983,0,1156,8.33,17.76652,9.898,43690,29.55337,1010.531,0.002110955,9.719999,1008.73,0,178.016860883,12.12,184.2923,7.742,7.78049977976,1.80078
2022-06-01T18:45:27Z,13.17528,12.04896,0.849196,72.3335,0,1156,8.1536,17.74167,10.486,43690,59.44372,1010.531,0.00424598,9.639999,1008.73,0,174.488525331,12.12,168.3041,8.241799,8.22861646429,1.80078
2022-06-01T19:00:28Z,13.17528,11.98106,0.8805349,71.18189,0,1156,8.1732,17.71682,8.643599,43690,61.63744,1009.8,0.004402674,8.29,1007.999,0,179.103004449,12.12,178.7864,6.8404,6.72618314286,1.80078
2022-06-01T19:15:27Z,13.18079,11.5747,0.2694122,72.73962,0,1156,8.526,17.46379,9.741199,43690,18.85885,1009.8,0.001347061,9.599999,1007.999,0,177.49854268,11.78,184.3885,7.3892,7.38168837126,1.80078
2022-06-01T19:30:28Z,13.19891,11.88691,0.2149787,71.63238,0,1156,6.4484,16.91027,9.819599,43690,15.04851,1009.8,0.001074894,8.939999,1007.999,0,180.386770886,11.89,181.0724,7.5852,7.56104979167,1.80078
2022-06-01T19:45:27Z,13.20704,12.33637,0.4521517,69.57858,0,1156,5.6056,16.53749,9.016,43690,31.65062,1009.8,0.002260758,7.389001,1007.999,0,179.945854381,12.74,168.3812,6.811,6.87539982143,1.80078
2022-06-01T20:00:28Z,13.20731,11.62599,0.3239299,71.78182,0,1156,6.3112,16.43808,8.212401,43690,22.67509,1008.833,0.00161965,7.958,1007.032,0,184.999678571,11.86,181.7811,6.1544,6.00786659524,1.80078
2022-06-01T20:15:28Z,13.20731,12.10025,0.2111329,71.64632,0,1156,6.2524,16.26638,8.408401,43690,14.7793,1008.833,0.001055665,6.762,1007.032,0,185.361617467,12.13,179.6405,6.0662,6.03819995238,1.80078
2022-06-01T20:30:28Z,13.21283,12.47288,0.6261681,71.51082,0,1156,4.4296,16.11727,8.134,43690,43.83177,1008.833,0.003130841,6.292,1007.032,0,184.341254642,12.47,190.8726,5.6546,5.80148329167,1.80078
2022-06-01T20:45:28Z,13.20731,12.77776,0.2082407,67.61515,0,1156,3.8024,16.33868,7.0756,43690,14.57685,1008.833,0.001041203,5.429,1007.032,0,192.25619797,12.78,209.6808,5.0176,4.97035,1.80078
2022-06-01T21:00:30Z,13.2018,12.67614,0.4709517,68.59754,0,1156,3.724,16.6369,5.7232,43690,32.96662,1008.752,0.002354758,4.939,1006.951,0,192.050199933,12.74,172.858,3.675,3.75141666667,1.80078
2022-06-01T21:15:30Z,13.21283,12.60838,0.4266042,69.20729,0,1156,3.4496,16.53749,6.0956,43690,29.86229,1008.752,0.002133021,5.174,1006.951,0,191.14757244,12.68,194.5524,4.0474,4.04926666667,1.80078
2022-06-01T21:30:30Z,13.21283,12.60838,0.3769542,67.78453,0,1156,3.8808,16.38838,6.2132,43690,26.38679,1008.752,0.001884771,4.841,1006.951,0,185.670926311,12.88,190.151,4.2238,4.29496666667,1.80078
2022-06-01T21:45:30Z,13.21283,12.54063,0.1841387,69.37667,0,1156,2.5676,16.31608,4.9392,43690,12.88971,1008.752,0.0009206937,3.45,1006.951,0,186.745838479,12.64,193.1815,3.5574,3.49953333333,1.80078
2022-06-01T22:00:31Z,13.21283,13.18427,0.06555725,67.58127,0,1156,1.6464,16.29123,3.7828,43690,4.589007,1007.776,0.0003277862,2.313,1005.976,0,189.814597879,13.32,183.4407,2.3814,2.44405,1.80078
2022-06-01T22:15:33Z,13.21283,11.897,0.2366809,71.71406,0,1156,1.4896,16.19182,3.0576,43690,16.56767,1007.776,0.001183405,3.058,1005.976,0,182.183672255,12.07,159.0044,1.7542,1.75128332798,1.80078
2022-06-01T22:30:28Z,13.22938,12.37126,0.1928154,71.8157,0,1156,1.7052,15.72642,3.2732,43690,13.49708,1007.776,0.0009640771,2.411,1005.976,0,176.928411019,12.37,192.4118,2.4108,2.36361916168,1.80078
2022-06-01T22:45:32Z,13.2349,12.40513,0.149914,70.66394,0,1156,2.45,15.40786,2.6656,43690,10.49398,1007.776,0.0007495699,2.332,1005.976,0,178.63611589,12.44,177.9569,1.5876,1.57254999524,1.80078
2022-06-01T23:00:30Z,13.24086,12.03355,0.03036843,71.71552,0,1156,1.4896,15.09383,2.9596,43690,2.12579,1008.925,0.0001518422,2.254,1007.124,0,186.208656053,12.07,185.2964,1.9208,1.88113053892,1.80078
2022-06-01T23:15:31Z,13.25746,11.32464,0.06700336,74.46307,0,1156,1.5288,14.51546,2.3912,43690,4.690235,1008.925,0.0003350168,1.901,1007.124,0,178.981840098,11.36,162.984,1.7738,1.73283278279,1.80078
2022-06-01T23:30:31Z,13.27171,10.42006,0.04724907,79.69622,0,1156,1.9404,13.91902,1.9404,43690,3.307435,1008.925,0.0002362453,1.94,1007.124,0,152.184900902,10.45,147.5715,1.5288,1.49912777639,1.80078
2022-06-01T23:45:30Z,13.28352,10.08463,0.005304131,81.59931,0,1156,2.0972,13.32936,2.7244,43690,0.3712892,1008.925,2.652066e-05,2.058,1007.124,0,143.680518406,10.19,150.6372,1.8424,1.79404550778,1.80078
2022-06-02T00:00:33Z,13.30009,10.05083,0.001446604,79.26126,0,1156,1.9012,12.65158,2.6264,43690,0.1012623,1008.355,7.233018e-06,1.999,1006.554,0,150.693520609,10.19,158.6252,2.156,2.12710515464,1.80078
2022-06-02T00:15:30Z,13.31326,10.09237,0.0,81.00187,0,1156,1.3524,12.14099,2.3128,43690,0.0,1008.355,0.0,1.686,1006.554,0,179.251523503,10.16,196.1641,1.3524,1.24947065329,1.80078
2022-06-02T00:30:31Z,13.31934,9.924171,0.0,81.64788,0,1156,1.1956,11.72529,1.8228,43690,0.0,1008.355,0.0,1.254,1006.554,0,194.138517078,10.03,191.7413,1.176,1.06708502635,1.80078
2022-06-02T00:45:31Z,13.32641,9.829689,0.0,81.45628,0,1156,0.8428,11.42707,1.4112,43690,0.0,1008.355,0.0,1.078,1006.554,0,136.961126232,9.9,164.4044,0.7252,0.697384416766,1.80078
2022-06-02T01:00:35Z,13.3322,9.830494,0.0,82.03387,0,1156,0.4312,11.15144,1.4896,43690,0.0,1009.014,0.0,0.549,1007.213,0,151.257225006,9.929999,161.1339,0.4508,0.553349994643,1.80078
2022-06-02T01:15:35Z,13.34325,9.627117,0.0,83.18644,0,1156,0.392,10.90066,0.5096,43690,0.0,1009.014,0.0,0.49,1007.213,0,146.106080359,9.729999,53.40644,0.0392,0.143984615385,1.80078
2022-06-02T01:30:34Z,13.34325,9.355934,0.0,84.33898,0,1156,0.392,10.62955,0.9015999,43690,0.0,1009.014,0.0,0.333,1007.213,0,46.8562408553,9.46,221.6885,0.4116,0.349183332143,1.80078
2022-06-02T01:45:36Z,13.35429,9.288135,0.0,83.86441,0,1156,0.2744,10.35844,1.1956,43690,0.0,1009.014,0.0,1.176,1007.213,0,186.245202375,9.36,164.0942,0.4508,0.430383328571,1.80078
2022-06-02T02:00:36Z,13.35429,9.084747,0.0,84.67796,0,1156,0.0392,10.08733,1.0584,43690,0.0,1009.096,0.0,0.608,1007.295,0,176.826374375,9.25,172.1088,0.392,0.405183329762,1.80078
2022-06-02T02:15:36Z,13.35981,9.288135,0.0,84.74577,0,1156,0.0196,9.92918,1.1564,43690,0.0,1009.096,0.0,0.647,1007.295,0,186.519344454,9.389999,232.4949,0.2058,0.320483330952,1.80078
2022-06-02T02:30:35Z,13.35981,9.016949,0.0,85.35594,0,1156,0.4116,9.793629,0.8624,43690,0.0,1009.096,0.0,0.588,1007.295,0,223.785102483,9.189999,23.03288,0.3724,0.317333333333,1.80078
2022-06-02T02:45:35Z,13.37085,8.814224,0.0,86.23846,0,1156,0.196,9.615146,1.3132,43690,0.0,1009.096,0.0,1.0,1007.295,0,238.512138572,8.95,213.4602,0.7448,0.727649984524,1.80078
2022-06-02T03:00:34Z,13.37782,9.021336,0.0,86.51622,0,1156,1.0388,9.391483,1.568,43690,0.0,1008.978,0.0,1.548,1007.178,0,232.112902788,9.019999,223.4173,1.0584,0.992016653571,1.80078
2022-06-02T03:15:34Z,13.37891,8.858135,0.0,87.10378,0,1156,0.7448,9.258182,1.372,43690,0.0,1008.978,0.0,1.117,1007.178,0,238.417079347,8.96,234.4957,0.7252,0.747483322024,1.80078
2022-06-02T03:30:35Z,13.38583,8.75999,0.0,88.02569,0,1156,1.6268,9.079701,1.9012,43690,0.0,1008.978,0.0,1.901,1007.178,0,210.896283211,8.79,217.1549,0.6272,0.65893332619,1.80078
2022-06-02T03:45:34Z,13.39193,8.524788,0.0,89.14862,0,1156,0.7448,8.790523,2.1756,43690,0.0,1008.978,0.0,1.666,1007.178,0,219.630004927,8.689999,211.9882,1.1662,1.17611665655,1.80078
2022-06-02T04:00:34Z,13.40299,8.253635,0.0,90.06442,0,1156,0.3724,8.501339,1.9012,43690,0.0,1008.372,0.0,1.666,1006.572,0,231.569778909,8.29,250.5825,0.9604,0.973349990476,1.80078
2022-06-02T04:15:36Z,13.40851,7.948448,0.0,90.67479,0,1156,0.5488,8.169224,1.5484,43690,0.0,1008.372,0.0,0.666,1006.572,0,227.13186708,7.915001,216.3224,0.5096,0.523082796815,1.80078
2022-06-02T04:30:35Z,13.41956,7.405891,0.0,91.31908,0,1156,0.8035999,7.773854,0.8428,43690,0.0,1008.372,0.0,0.7640001,1006.572,0,200.210195822,7.508,188.5388,0.3528,0.349209159542,1.80078
2022-06-02T04:46:27Z,13.43121,7.375397,0.0,92.07172,0,1156,0.5096,7.37849,1.5092,43690,0.0,1008.372,0.0,0.647,1006.572,0,206.796686374,7.544,229.2918,0.5586,0.549628161972,1.80078
2022-06-02T05:01:25Z,13.43832,7.481331,0.0,92.65642,0,1156,0.5684,7.114155,0.686,43690,0.0,1008.046,0.0,0.725,1006.245,0,319.893556194,7.481001,215.0328,0.2156,0.261578947368,1.80078
2022-06-02T05:16:27Z,13.43946,7.347721,0.0,92.93177,0,1156,0.0392,6.897266,0.7448,43690,0.0,1008.046,0.0,0.725,1006.245,0,232.068308097,7.348001,195.0309,0.3332,0.297363313609,1.80078
2022-06-02T05:31:23Z,13.44528,6.67289,0.0,93.14226,0,1156,0.294,6.743641,0.7056,43690,0.0,1008.046,0.0,0.02,1006.245,0,226.111172491,6.809001,268.2568,0.0392,0.138366666667,1.80078
2022-06-02T05:46:23Z,13.45165,7.014751,0.0,93.92774,0,1156,0.0196,6.569676,0.8624,43690,0.0,1008.046,0.0,0.627,1006.245,0,353.343735099,7.049,25.91442,0.5096,0.484049996429,1.80078
2022-06-02T06:01:28Z,13.45173,6.26865,0.0,93.962,0,1156,0.8624,6.43864,0.9604,43690,0.0,1008.707,0.0,0.823,1006.906,0,356.584544834,6.303,218.6597,0.0392,0.154828401183,1.80078
2022-06-02T06:16:24Z,13.45726,6.54002,0.0,94.09768,0,1156,0.3136,6.330196,1.1172,43690,0.0,1008.707,0.0,0.8430001,1006.906,0,309.276404767,6.913,13.48711,0.588,0.591266657143,1.80078
2022-06-02T06:31:24Z,13.45726,5.895516,0.0,94.16552,0,1156,2.1168,6.242084,2.1168,43690,0.0,1008.707,0.0,2.058,1006.906,0,21.7292662379,6.235,56.38093,0.8428,0.909464953503,1.80078
2022-06-02T06:46:24Z,13.46278,6.607864,0.0,94.81003,0,1156,1.47,6.176563,3.822,43690,0.0,1008.707,0.0,1.588,1006.906,0,66.0285023653,6.642,72.3487,1.8228,1.98695,1.80078
2022-06-02T07:01:24Z,13.46278,6.54002,0.0,91.04476,0,1156,1.9012,6.13364,4.3316,43690,0.0,1008.463,0.0,3.822,1006.662,0,69.0513005208,6.574,87.88296,2.4598,2.4773,1.80078
2022-06-02T07:16:24Z,13.46831,6.370415,0.0,85.78697,0,1156,1.5876,5.959682,3.8024,43690,0.0,1008.463,0.0,2.646,1006.662,0,76.7430255515,6.472,88.79816,1.9796,2.03023333274,1.80078